sat.trackr.live / text

‹ back to catalog

STARLINK-2683

NORAD 48462 · 2021-040AL

PAYLOAD ACTIVE UNKNOWN

§ Identity

Operator
Country
US
Launch date
2021-05-09
Launch site
AFETR
Launch vehicle
Mass (kg)
RCS (m²)

Purposes: comms

External: N2YO · Heavens-Above · Gunter

§ Orbital elements

Epoch: 2026-05-25T03:20:38.700384Z

Period
94.01 min
Inclination
53.1589°
Eccentricity
0.0001449
Mean motion
15.31714020 rev/d
Perigee alt
469.7 km
Apogee alt
471.7 km
Semi-major
6,848.8 km
B*
5.9320e-4
RAAN
195.4987°
Arg perigee
86.7024°
Mean anomaly
273.4143°
Rev number
27,821

§ Raw data

STARLINK-26831 48462U 21040AL  26145.13933681  .00018095  00000+0  59320-3 0  99972 48462  53.1589 195.4987 0001449  86.7024 273.4143 15.31714020278213

JSON: /api/v1/satellites/48462 · /tle

For live sub-satellite position, see the globe view (requires WebGL).

§ Visibility from observer

Set your observer location to see the next 7 days of passes ≥ 10°. The values pass through the URL so the page stays shareable.

No JS? Fill the form by hand. The geolocation button needs JavaScript.